Time,TemperatureF,DewpointF,PressureIn,WindDirection,WindDirectionDegrees,WindSpeedMPH,WindSpeedGustMPH,Humidity,HourlyPrecipIn,Conditions,Clouds,dailyrainin,SoftwareType,DateUTC
2013-03-10 00:02:00,54.6,35.8,30.10,ENE,67,2.0,0.0,49,0.00,,,0.00,WeatherTracker,2013-03-10 06:02:00,
2013-03-10 00:07:00,54.8,36.0,30.09,East,92,0.0,0.0,49,0.00,,,0.00,WeatherTracker,2013-03-10 06:07:00,
2013-03-10 00:12:00,54.8,36.0,30.09,ENE,76,0.0,0.0,49,0.00,,,0.00,WeatherTracker,2013-03-10 06:12:00,
2013-03-10 00:17:00,54.9,36.1,30.09,ENE,75,0.0,0.0,49,0.00,,,0.00,WeatherTracker,2013-03-10 06:17:00,
2013-03-10 00:22:00,54.9,36.6,30.09,NE,52,3.0,0.0,50,0.00,,,0.00,WeatherTracker,2013-03-10 06:22:00,
2013-03-10 00:27:00,54.9,36.6,30.10,ENE,65,0.0,0.0,50,0.00,,,0.00,WeatherTracker,2013-03-10 06:27:00,
2013-03-10 00:32:00,54.9,36.6,30.10,North,11,0.0,0.0,50,0.00,,,0.00,WeatherTracker,2013-03-10 06:32:00,
2013-03-10 00:37:00,54.9,36.6,30.11,NE,51,0.0,0.0,50,0.00,,,0.00,WeatherTracker,2013-03-10 06:37:00,
2013-03-10 00:42:00,54.8,36.5,30.11,ENE,57,2.0,0.0,50,0.00,,,0.00,WeatherTracker,2013-03-10 06:42:00,
2013-03-10 00:47:00,54.7,36.4,30.11,East,82,0.0,0.0,50,0.00,,,0.00,WeatherTracker,2013-03-10 06:47:00,
2013-03-10 00:52:00,54.7,35.9,30.10,East,90,0.0,0.0,49,0.00,,,0.00,WeatherTracker,2013-03-10 06:52:00,
2013-03-10 00:57:00,54.8,36.5,30.10,ENE,67,0.0,0.0,50,0.00,,,0.00,WeatherTracker,2013-03-10 06:57:00,
2013-03-10 01:02:00,54.8,36.5,30.10,ESE,111,0.0,0.0,50,0.00,,,0.00,WeatherTracker,2013-03-10 07:02:00,
2013-03-10 01:07:00,54.8,36.5,30.10,SE,133,0.0,0.0,50,0.00,,,0.00,WeatherTracker,2013-03-10 07:07:00,
2013-03-10 01:12:00,54.8,36.5,30.10,ENE,62,1.0,0.0,50,0.00,,,0.00,WeatherTracker,2013-03-10 07:12:00,
2013-03-10 01:17:00,54.8,36.0,30.10,ESE,117,0.0,0.0,49,0.00,,,0.00,WeatherTracker,2013-03-10 07:17:00,
2013-03-10 01:22:00,54.8,36.0,30.09,East,91,2.0,0.0,49,0.00,,,0.00,WeatherTracker,2013-03-10 07:22:00,
2013-03-10 01:27:00,54.8,36.5,30.07,East,80,1.0,0.0,50,0.00,,,0.00,WeatherTracker,2013-03-10 07:27:00,
2013-03-10 01:32:00,54.8,36.0,30.08,ENE,64,0.0,0.0,49,0.00,,,0.00,WeatherTracker,2013-03-10 07:32:00,
2013-03-10 01:37:00,54.8,36.5,30.08,ENE,76,0.0,0.0,50,0.00,,,0.00,WeatherTracker,2013-03-10 07:37:00,
2013-03-10 01:42:00,54.8,37.0,30.09,ESE,105,0.0,0.0,51,0.00,,,0.00,WeatherTracker,2013-03-10 07:42:00,
2013-03-10 01:47:00,54.7,36.4,30.09,East,92,1.0,0.0,50,0.00,,,0.00,WeatherTracker,2013-03-10 07:47:00,
2013-03-10 01:52:00,54.8,36.5,30.07,ENE,65,2.0,0.0,50,0.00,,,0.00,WeatherTracker,2013-03-10 07:52:00,
2013-03-10 01:57:00,54.8,36.5,30.07,ENE,65,2.0,0.0,50,0.00,,,0.00,WeatherTracker,2013-03-10 07:57:00,
2013-03-10 03:02:00,54.7,36.4,30.06,SE,126,6.0,0.0,50,0.00,,,0.00,WeatherTracker,2013-03-10 08:02:00,
2013-03-10 03:07:00,54.6,36.8,30.06,ESE,102,0.0,0.0,51,0.00,,,0.00,WeatherTracker,2013-03-10 08:07:00,
2013-03-10 03:12:00,54.5,36.2,30.06,ENE,73,1.0,0.0,50,0.00,,,0.00,WeatherTracker,2013-03-10 08:12:00,
2013-03-10 03:17:00,54.4,36.2,30.06,ENE,74,0.0,0.0,50,0.00,,,0.00,WeatherTracker,2013-03-10 08:17:00,
2013-03-10 03:22:00,54.4,36.7,30.07,ENE,63,0.0,0.0,51,0.00,,,0.00,WeatherTracker,2013-03-10 08:22:00,
2013-03-10 03:27:00,54.4,36.7,30.07,East,92,0.0,0.0,51,0.00,,,0.00,WeatherTracker,2013-03-10 08:27:00,
2013-03-10 03:32:00,54.4,36.7,30.06,SE,132,0.0,0.0,51,0.00,,,0.00,WeatherTracker,2013-03-10 08:32:00,
2013-03-10 03:37:00,54.3,36.6,30.06,NE,53,0.0,0.0,51,0.00,,,0.00,WeatherTracker,2013-03-10 08:37:00,
2013-03-10 03:43:00,54.3,36.1,30.04,East,85,0.0,0.0,50,0.00,,,0.00,WeatherTracker,2013-03-10 08:43:00,
2013-03-10 03:48:00,54.3,36.6,30.04,East,79,6.0,0.0,51,0.00,,,0.00,WeatherTracker,2013-03-10 08:48:00,
2013-03-10 03:53:00,54.4,36.7,30.04,SE,136,2.0,0.0,51,0.00,,,0.00,WeatherTracker,2013-03-10 08:53:00,
2013-03-10 03:58:00,54.3,36.6,30.05,East,86,0.0,0.0,51,0.00,,,0.00,WeatherTracker,2013-03-10 08:58:00,
2013-03-10 04:03:00,54.2,36.5,30.05,SE,134,2.0,0.0,51,0.00,,,0.00,WeatherTracker,2013-03-10 09:03:00,
2013-03-10 04:08:00,54.2,36.5,30.05,ESE,110,2.0,0.0,51,0.00,,,0.00,WeatherTracker,2013-03-10 09:08:00,
2013-03-10 04:13:00,54.2,36.5,30.05,ESE,121,0.0,0.0,51,0.00,,,0.00,WeatherTracker,2013-03-10 09:13:00,
2013-03-10 04:18:00,54.3,36.1,30.05,SSE,156,0.0,0.0,50,0.00,,,0.00,WeatherTracker,2013-03-10 09:18:00,
2013-03-10 04:23:00,54.3,36.1,30.06,ESE,119,9.0,0.0,50,0.00,,,0.00,WeatherTracker,2013-03-10 09:23:00,
2013-03-10 04:28:00,54.3,36.1,30.06,East,88,0.0,0.0,50,0.00,,,0.00,WeatherTracker,2013-03-10 09:28:00,
2013-03-10 04:33:00,54.3,36.6,30.07,SSE,167,0.0,0.0,51,0.00,,,0.00,WeatherTracker,2013-03-10 09:33:00,
2013-03-10 04:38:00,54.3,36.6,30.07,NW,311,0.0,0.0,51,0.00,,,0.00,WeatherTracker,2013-03-10 09:38:00,
2013-03-10 04:43:00,54.3,36.1,30.08,SSE,157,4.0,0.0,50,0.00,,,0.00,WeatherTracker,2013-03-10 09:43:00,
2013-03-10 04:48:00,54.3,36.1,30.08,East,82,0.0,0.0,50,0.00,,,0.00,WeatherTracker,2013-03-10 09:48:00,
2013-03-10 04:53:00,54.3,36.1,30.08,SE,129,3.0,0.0,50,0.00,,,0.00,WeatherTracker,2013-03-10 09:53:00,
2013-03-10 04:58:00,54.3,36.6,30.08,SE,130,1.0,0.0,51,0.00,,,0.00,WeatherTracker,2013-03-10 09:58:00,
2013-03-10 05:03:00,54.2,36.5,30.08,ESE,103,0.0,0.0,51,0.00,,,0.00,WeatherTracker,2013-03-10 10:03:00,
2013-03-10 05:08:00,54.1,36.4,30.08,ENE,62,3.0,0.0,51,0.00,,,0.00,WeatherTracker,2013-03-10 10:08:00,
2013-03-10 05:13:00,54.1,36.4,30.09,SE,125,2.0,0.0,51,0.00,,,0.00,WeatherTracker,2013-03-10 10:13:00,
2013-03-10 05:18:00,54.0,36.3,30.09,East,90,0.0,0.0,51,0.00,,,0.00,WeatherTracker,2013-03-10 10:18:00,
2013-03-10 05:23:00,53.9,36.2,30.09,East,84,0.0,0.0,51,0.00,,,0.00,WeatherTracker,2013-03-10 10:23:00,
2013-03-10 05:28:00,53.8,36.1,30.09,ENE,74,1.0,0.0,51,0.00,,,0.00,WeatherTracker,2013-03-10 10:28:00,
2013-03-10 05:33:00,53.8,36.1,30.09,ESE,119,0.0,0.0,51,0.00,,,0.00,WeatherTracker,2013-03-10 10:33:00,
2013-03-10 05:38:00,53.8,36.6,30.09,ESE,115,3.0,0.0,52,0.00,,,0.00,WeatherTracker,2013-03-10 10:38:00,
2013-03-10 05:43:00,53.7,36.0,30.09,East,86,0.0,0.0,51,0.00,,,0.00,WeatherTracker,2013-03-10 10:43:00,
2013-03-10 05:48:00,53.6,35.9,30.09,ENE,78,0.0,0.0,51,0.00,,,0.00,WeatherTracker,2013-03-10 10:48:00,
2013-03-10 05:53:00,53.5,36.3,30.08,East,98,0.0,0.0,52,0.00,,,0.00,WeatherTracker,2013-03-10 10:53:00,
2013-03-10 05:59:00,53.3,35.6,30.09,NE,42,0.0,0.0,51,0.00,,,0.00,WeatherTracker,2013-03-10 10:59:00,
2013-03-10 06:04:00,53.2,35.5,30.08,NE,34,6.0,0.0,51,0.00,,,0.00,WeatherTracker,2013-03-10 11:04:00,
2013-03-10 06:09:00,53.0,35.9,30.08,NE,55,0.0,0.0,52,0.00,,,0.00,WeatherTracker,2013-03-10 11:09:00,
2013-03-10 06:14:00,52.9,35.8,30.07,SE,127,0.0,0.0,52,0.00,,,0.00,WeatherTracker,2013-03-10 11:14:00,
2013-03-10 06:19:00,52.8,35.7,30.07,ENE,57,4.0,0.0,52,0.00,,,0.00,WeatherTracker,2013-03-10 11:19:00,
2013-03-10 06:24:00,52.6,36.0,30.07,ESE,113,0.0,0.0,53,0.00,,,0.00,WeatherTracker,2013-03-10 11:24:00,
2013-03-10 06:29:00,52.4,35.8,30.07,East,94,3.0,0.0,53,0.00,,,0.00,WeatherTracker,2013-03-10 11:29:00,
2013-03-10 06:34:00,52.4,35.3,30.08,SSE,165,0.0,0.0,52,0.00,,,0.00,WeatherTracker,2013-03-10 11:34:00,
2013-03-10 06:39:00,52.3,35.7,30.08,East,90,0.0,0.0,53,0.00,,,0.00,WeatherTracker,2013-03-10 11:39:00,
2013-03-10 06:44:00,52.3,35.7,30.08,East,92,1.0,0.0,53,0.00,,,0.00,WeatherTracker,2013-03-10 11:44:00,
2013-03-10 06:49:00,52.2,35.6,30.08,East,79,0.0,0.0,53,0.00,,,0.00,WeatherTracker,2013-03-10 11:49:00,
2013-03-10 06:54:00,52.0,35.4,30.08,East,87,0.0,0.0,53,0.00,,,0.00,WeatherTracker,2013-03-10 11:54:00,
2013-03-10 06:59:00,51.9,35.8,30.07,East,96,1.0,0.0,54,0.00,,,0.00,WeatherTracker,2013-03-10 11:59:00,
2013-03-10 07:04:00,51.7,35.6,30.07,ENE,76,0.0,0.0,54,0.00,,,0.00,WeatherTracker,2013-03-10 12:04:00,
2013-03-10 07:09:00,51.7,35.6,30.07,East,94,0.0,0.0,54,0.00,,,0.00,WeatherTracker,2013-03-10 12:09:00,
2013-03-10 07:14:00,51.5,35.4,30.07,East,84,1.0,0.0,54,0.00,,,0.00,WeatherTracker,2013-03-10 12:14:00,
2013-03-10 07:19:00,51.5,35.4,30.08,ENE,74,0.0,0.0,54,0.00,,,0.00,WeatherTracker,2013-03-10 12:19:00,
2013-03-10 07:24:00,51.5,35.4,30.07,East,88,2.0,0.0,54,0.00,,,0.00,WeatherTracker,2013-03-10 12:24:00,
2013-03-10 07:29:00,51.7,35.6,30.07,SE,124,2.0,0.0,54,0.00,,,0.00,WeatherTracker,2013-03-10 12:29:00,
2013-03-10 07:34:00,51.8,35.7,30.07,ESE,122,1.0,0.0,54,0.00,,,0.00,WeatherTracker,2013-03-10 12:34:00,
2013-03-10 07:39:00,52.1,35.5,30.07,ESE,113,4.0,0.0,53,0.00,,,0.00,WeatherTracker,2013-03-10 12:39:00,
2013-03-10 07:44:00,52.4,35.8,30.07,NE,55,0.0,0.0,53,0.00,,,0.00,WeatherTracker,2013-03-10 12:44:00,
2013-03-10 07:49:00,52.7,36.1,30.07,NE,41,10.0,0.0,53,0.00,,,0.00,WeatherTracker,2013-03-10 12:49:00,
2013-03-10 07:54:00,53.0,35.9,30.07,East,97,0.0,0.0,52,0.00,,,0.00,WeatherTracker,2013-03-10 12:54:00,
2013-03-10 07:59:00,53.1,35.9,30.07,ENE,74,4.0,0.0,52,0.00,,,0.00,WeatherTracker,2013-03-10 12:59:00,
2013-03-10 08:04:00,53.2,36.0,30.07,ENE,67,4.0,0.0,52,0.00,,,0.00,WeatherTracker,2013-03-10 13:04:00,
2013-03-10 08:09:00,53.2,36.0,30.07,ESE,109,3.0,0.0,52,0.00,,,0.00,WeatherTracker,2013-03-10 13:09:00,
2013-03-10 08:14:00,53.1,35.9,30.07,ESE,106,6.0,0.0,52,0.00,,,0.00,WeatherTracker,2013-03-10 13:14:00,
2013-03-10 08:20:00,53.1,35.9,30.07,ESE,115,0.0,0.0,52,0.00,,,0.00,WeatherTracker,2013-03-10 13:20:00,
2013-03-10 08:25:00,53.2,36.0,30.08,East,80,0.0,0.0,52,0.00,,,0.00,WeatherTracker,2013-03-10 13:25:00,
2013-03-10 08:30:00,53.2,36.0,30.08,SE,140,1.0,0.0,52,0.00,,,0.00,WeatherTracker,2013-03-10 13:30:00,
2013-03-10 08:35:00,53.3,36.6,30.08,SSE,150,0.0,0.0,53,0.00,,,0.00,WeatherTracker,2013-03-10 13:35:00,
2013-03-10 08:40:00,53.4,36.7,30.08,ENE,75,8.0,0.0,53,0.00,,,0.00,WeatherTracker,2013-03-10 13:40:00,
2013-03-10 08:45:00,53.5,36.3,30.08,SE,141,10.0,0.0,52,0.00,,,0.00,WeatherTracker,2013-03-10 13:45:00,
2013-03-10 08:50:00,53.6,36.4,30.08,SSE,148,7.0,0.0,52,0.00,,,0.00,WeatherTracker,2013-03-10 13:50:00,
2013-03-10 08:55:00,53.8,36.6,30.07,East,84,5.0,0.0,52,0.00,,,0.00,WeatherTracker,2013-03-10 13:55:00,
2013-03-10 09:00:00,54.0,37.3,30.07,East,92,3.0,0.0,53,0.00,,,0.00,WeatherTracker,2013-03-10 14:00:00,
2013-03-10 09:05:00,54.3,37.5,30.06,ESE,102,3.0,0.0,53,0.00,,,0.00,WeatherTracker,2013-03-10 14:05:00,
2013-03-10 09:10:00,55.0,37.7,30.06,NNE,15,6.0,0.0,52,0.00,,,0.00,WeatherTracker,2013-03-10 14:10:00,
2013-03-10 09:15:00,55.7,37.9,30.06,ESE,103,4.0,0.0,51,0.00,,,0.00,WeatherTracker,2013-03-10 14:15:00,
2013-03-10 09:20:00,56.0,38.1,30.06,East,82,6.0,0.0,51,0.00,,,0.00,WeatherTracker,2013-03-10 14:20:00,
2013-03-10 09:25:00,56.2,38.3,30.07,NNE,24,3.0,0.0,51,0.00,,,0.00,WeatherTracker,2013-03-10 14:25:00,
2013-03-10 09:30:00,56.5,39.1,30.07,SSE,150,6.0,0.0,52,0.00,,,0.00,WeatherTracker,2013-03-10 14:30:00,
2013-03-10 09:35:00,56.9,39.0,30.07,East,79,5.0,0.0,51,0.00,,,0.00,WeatherTracker,2013-03-10 14:35:00,
2013-03-10 09:40:00,57.2,38.7,30.06,NE,52,4.0,0.0,50,0.00,,,0.00,WeatherTracker,2013-03-10 14:40:00,
2013-03-10 09:45:00,57.5,39.5,30.06,South,172,11.0,0.0,51,0.00,,,0.00,WeatherTracker,2013-03-10 14:45:00,
2013-03-10 09:50:00,57.9,39.9,30.05,SE,146,2.0,0.0,51,0.00,,,0.00,WeatherTracker,2013-03-10 14:50:00,
2013-03-10 09:55:00,58.2,39.6,30.04,ESE,120,5.0,0.0,50,0.00,,,0.00,WeatherTracker,2013-03-10 14:55:00,
2013-03-10 10:00:00,58.4,40.3,30.04,ESE,123,7.0,0.0,51,0.00,,,0.00,WeatherTracker,2013-03-10 15:00:00,
2013-03-10 10:05:00,58.8,40.2,30.04,East,98,0.0,0.0,50,0.00,,,0.00,WeatherTracker,2013-03-10 15:05:00,
2013-03-10 10:10:00,59.0,40.9,30.04,SE,144,0.0,0.0,51,0.00,,,0.00,WeatherTracker,2013-03-10 15:10:00,
2013-03-10 10:15:00,59.0,40.4,30.04,ESE,113,10.0,0.0,50,0.00,,,0.00,WeatherTracker,2013-03-10 15:15:00,
2013-03-10 10:20:00,59.0,40.4,30.05,SSE,157,5.0,0.0,50,0.00,,,0.00,WeatherTracker,2013-03-10 15:20:00,
2013-03-10 10:25:00,59.0,40.4,30.05,SSE,148,9.0,0.0,50,0.00,,,0.00,WeatherTracker,2013-03-10 15:25:00,
2013-03-10 10:30:00,59.6,40.9,30.04,ENE,71,9.0,0.0,50,0.00,,,0.00,WeatherTracker,2013-03-10 15:30:00,
2013-03-10 10:35:00,60.2,41.0,30.04,SE,140,0.0,0.0,49,0.00,,,0.00,WeatherTracker,2013-03-10 15:35:00,
2013-03-10 10:40:00,60.9,41.6,30.04,East,81,5.0,0.0,49,0.00,,,0.00,WeatherTracker,2013-03-10 15:40:00,
2013-03-10 10:46:00,61.6,41.7,30.04,SSE,149,0.0,0.0,48,0.00,,,0.00,WeatherTracker,2013-03-10 15:46:00,
2013-03-10 10:51:00,62.0,41.5,30.04,South,172,11.0,0.0,47,0.00,,,0.00,WeatherTracker,2013-03-10 15:51:00,
2013-03-10 10:56:00,62.2,41.7,30.05,SSE,164,6.0,0.0,47,0.00,,,0.00,WeatherTracker,2013-03-10 15:56:00,
2013-03-10 11:01:00,62.3,42.4,30.05,ESE,103,4.0,0.0,48,0.00,,,0.00,WeatherTracker,2013-03-10 16:01:00,
2013-03-10 11:06:00,62.6,42.1,30.05,South,170,4.0,0.0,47,0.00,,,0.00,WeatherTracker,2013-03-10 16:06:00,
2013-03-10 11:11:00,62.8,42.3,30.05,SSE,151,6.0,0.0,47,0.00,,,0.00,WeatherTracker,2013-03-10 16:11:00,
2013-03-10 11:16:00,63.1,42.5,30.05,East,99,0.0,0.0,47,0.00,,,0.00,WeatherTracker,2013-03-10 16:16:00,
2013-03-10 11:21:00,63.4,44.4,30.05,ENE,71,0.0,0.0,50,0.00,,,0.00,WeatherTracker,2013-03-10 16:21:00,
2013-03-10 11:26:00,63.9,42.7,30.05,SSE,150,7.0,0.0,46,0.00,,,0.00,WeatherTracker,2013-03-10 16:26:00,
2013-03-10 11:31:00,63.8,43.2,30.05,SSE,155,12.0,0.0,47,0.00,,,0.00,WeatherTracker,2013-03-10 16:31:00,
2013-03-10 11:36:00,63.8,43.2,30.05,SE,136,4.0,0.0,47,0.00,,,0.00,WeatherTracker,2013-03-10 16:36:00,
2013-03-10 11:41:00,63.8,43.7,30.05,ENE,65,3.0,0.0,48,0.00,,,0.00,WeatherTracker,2013-03-10 16:41:00,
2013-03-10 11:46:00,64.2,44.1,30.04,South,169,0.0,0.0,48,0.00,,,0.00,WeatherTracker,2013-03-10 16:46:00,
2013-03-10 11:51:00,64.3,44.7,30.05,SSE,164,0.0,0.0,49,0.00,,,0.00,WeatherTracker,2013-03-10 16:51:00,
2013-03-10 11:56:00,64.1,44.5,30.05,SW,224,1.0,0.0,49,0.00,,,0.00,WeatherTracker,2013-03-10 16:56:00,
2013-03-10 12:01:00,63.9,43.3,30.05,South,177,12.0,0.0,47,0.00,,,0.00,WeatherTracker,2013-03-10 17:01:00,
2013-03-10 12:06:00,63.8,43.7,30.05,SE,137,0.0,0.0,48,0.00,,,0.00,WeatherTracker,2013-03-10 17:06:00,
2013-03-10 12:11:00,64.0,44.5,30.05,SE,144,0.0,0.0,49,0.00,,,0.00,WeatherTracker,2013-03-10 17:11:00,
2013-03-10 12:16:00,64.7,44.6,30.04,SSW,203,0.0,0.0,48,0.00,,,0.00,WeatherTracker,2013-03-10 17:16:00,
2013-03-10 12:21:00,65.4,45.2,30.05,SSW,199,2.0,0.0,48,0.00,,,0.00,WeatherTracker,2013-03-10 17:21:00,
2013-03-10 12:26:00,65.9,46.2,30.05,South,190,0.0,0.0,49,0.00,,,0.00,WeatherTracker,2013-03-10 17:26:00,
2013-03-10 12:31:00,66.2,44.8,30.04,SSE,152,1.0,0.0,46,0.00,,,0.00,WeatherTracker,2013-03-10 17:31:00,
2013-03-10 12:36:00,66.2,45.4,30.04,SSE,150,1.0,0.0,47,0.00,,,0.00,WeatherTracker,2013-03-10 17:36:00,
2013-03-10 12:41:00,66.1,45.3,30.03,SSE,153,1.0,0.0,47,0.00,,,0.00,WeatherTracker,2013-03-10 17:41:00,
2013-03-10 12:46:00,66.0,44.6,30.03,SSE,168,5.0,0.0,46,0.00,,,0.00,WeatherTracker,2013-03-10 17:46:00,
2013-03-10 12:51:00,65.9,45.6,30.02,SSE,161,2.0,0.0,48,0.00,,,0.00,WeatherTracker,2013-03-10 17:51:00,
2013-03-10 12:57:00,65.8,45.0,30.03,SE,146,1.0,0.0,47,0.00,,,0.00,WeatherTracker,2013-03-10 17:57:00,
2013-03-10 13:02:00,66.3,44.9,30.02,SSE,150,5.0,0.0,46,0.00,,,0.00,WeatherTracker,2013-03-10 18:02:00,
2013-03-10 13:07:00,67.1,45.6,30.02,SSE,147,0.0,0.0,46,0.00,,,0.00,WeatherTracker,2013-03-10 18:07:00,
2013-03-10 13:12:00,67.7,46.2,30.02,South,187,3.0,0.0,46,0.00,,,0.00,WeatherTracker,2013-03-10 18:12:00,
2013-03-10 13:17:00,68.2,47.2,30.02,SSE,153,9.0,0.0,47,0.00,,,0.00,WeatherTracker,2013-03-10 18:17:00,
2013-03-10 13:22:00,68.7,45.9,30.02,SE,128,3.0,0.0,44,0.00,,,0.00,WeatherTracker,2013-03-10 18:22:00,
2013-03-10 13:27:00,68.9,46.7,30.02,SSE,150,2.0,0.0,45,0.00,,,0.00,WeatherTracker,2013-03-10 18:27:00,
2013-03-10 13:32:00,69.5,47.2,30.02,SW,217,0.0,0.0,45,0.00,,,0.00,WeatherTracker,2013-03-10 18:32:00,
2013-03-10 13:37:00,69.8,47.5,30.01,SSE,150,0.0,0.0,45,0.00,,,0.00,WeatherTracker,2013-03-10 18:37:00,
2013-03-10 13:42:00,69.7,47.4,30.01,SSE,155,0.0,0.0,45,0.00,,,0.00,WeatherTracker,2013-03-10 18:42:00,
2013-03-10 13:47:00,69.4,46.5,30.01,ESE,119,7.0,0.0,44,0.00,,,0.00,WeatherTracker,2013-03-10 18:47:00,
2013-03-10 13:52:00,68.5,46.3,30.00,SSE,157,1.0,0.0,45,0.00,,,0.00,WeatherTracker,2013-03-10 18:52:00,
2013-03-10 13:57:00,67.8,46.8,30.00,South,182,0.0,0.0,47,0.00,,,0.00,WeatherTracker,2013-03-10 18:57:00,
2013-03-10 14:02:00,67.6,46.1,30.00,ENE,61,3.0,0.0,46,0.00,,,0.00,WeatherTracker,2013-03-10 19:02:00,
2013-03-10 14:07:00,67.6,46.6,30.00,South,174,0.0,0.0,47,0.00,,,0.00,WeatherTracker,2013-03-10 19:07:00,
2013-03-10 14:12:00,67.5,46.0,29.99,South,169,7.0,0.0,46,0.00,,,0.00,WeatherTracker,2013-03-10 19:12:00,
2013-03-10 14:17:00,67.7,46.7,29.98,ESE,119,6.0,0.0,47,0.00,,,0.00,WeatherTracker,2013-03-10 19:17:00,
2013-03-10 14:22:00,67.9,46.3,29.99,South,182,1.0,0.0,46,0.00,,,0.00,WeatherTracker,2013-03-10 19:22:00,
2013-03-10 14:27:00,68.1,47.1,29.99,South,169,4.0,0.0,47,0.00,,,0.00,WeatherTracker,2013-03-10 19:27:00,
2013-03-10 14:32:00,68.6,47.6,29.99,SSE,159,3.0,0.0,47,0.00,,,0.00,WeatherTracker,2013-03-10 19:32:00,
2013-03-10 14:37:00,69.1,47.4,29.98,SW,234,0.0,0.0,46,0.00,,,0.00,WeatherTracker,2013-03-10 19:37:00,
2013-03-10 14:42:00,69.7,47.4,29.98,SSE,157,9.0,0.0,45,0.00,,,0.00,WeatherTracker,2013-03-10 19:42:00,
2013-03-10 14:47:00,69.4,47.7,29.97,SSE,149,5.0,0.0,46,0.00,,,0.00,WeatherTracker,2013-03-10 19:47:00,
2013-03-10 14:53:00,69.0,47.3,29.96,ENE,59,3.0,0.0,46,0.00,,,0.00,WeatherTracker,2013-03-10 19:53:00,
2013-03-10 14:58:00,69.0,47.3,29.96,NNE,21,0.0,0.0,46,0.00,,,0.00,WeatherTracker,2013-03-10 19:58:00,
2013-03-10 15:03:00,68.9,46.7,29.96,SSE,156,0.0,0.0,45,0.00,,,0.00,WeatherTracker,2013-03-10 20:03:00,
2013-03-10 15:08:00,68.9,46.7,29.96,NNE,12,2.0,0.0,45,0.00,,,0.00,WeatherTracker,2013-03-10 20:08:00,
2013-03-10 15:13:00,68.8,46.6,29.96,South,176,0.0,0.0,45,0.00,,,0.00,WeatherTracker,2013-03-10 20:13:00,
2013-03-10 15:18:00,68.8,46.6,29.96,SE,140,4.0,0.0,45,0.00,,,0.00,WeatherTracker,2013-03-10 20:18:00,
2013-03-10 15:23:00,69.1,46.9,29.97,SSE,160,6.0,0.0,45,0.00,,,0.00,WeatherTracker,2013-03-10 20:23:00,
2013-03-10 15:28:00,69.5,47.2,29.97,SSE,148,0.0,0.0,45,0.00,,,0.00,WeatherTracker,2013-03-10 20:28:00,
2013-03-10 15:33:00,69.9,46.4,29.96,ENE,65,3.0,0.0,43,0.00,,,0.00,WeatherTracker,2013-03-10 20:33:00,
2013-03-10 15:38:00,69.9,47.0,29.96,SSE,150,0.0,0.0,44,0.00,,,0.00,WeatherTracker,2013-03-10 20:38:00,
2013-03-10 15:43:00,70.1,47.2,29.96,South,190,4.0,0.0,44,0.00,,,0.00,WeatherTracker,2013-03-10 20:43:00,
2013-03-10 15:48:00,70.2,46.0,29.96,SSE,155,4.0,0.0,42,0.00,,,0.00,WeatherTracker,2013-03-10 20:48:00,
2013-03-10 15:53:00,70.0,46.5,29.96,SE,146,5.0,0.0,43,0.00,,,0.00,WeatherTracker,2013-03-10 20:53:00,
2013-03-10 15:58:00,69.9,47.6,29.96,SE,126,1.0,0.0,45,0.00,,,0.00,WeatherTracker,2013-03-10 20:58:00,
2013-03-10 16:03:00,69.7,47.4,29.96,NE,37,2.0,0.0,45,0.00,,,0.00,WeatherTracker,2013-03-10 21:03:00,
2013-03-10 16:08:00,69.6,47.9,29.96,SSW,206,2.0,0.0,46,0.00,,,0.00,WeatherTracker,2013-03-10 21:08:00,
2013-03-10 16:13:00,69.7,48.0,29.95,South,186,1.0,0.0,46,0.00,,,0.00,WeatherTracker,2013-03-10 21:13:00,
2013-03-10 16:18:00,69.8,48.1,29.95,SE,125,0.0,0.0,46,0.00,,,0.00,WeatherTracker,2013-03-10 21:18:00,
2013-03-10 16:23:00,69.7,48.0,29.94,NNE,30,4.0,0.0,46,0.00,,,0.00,WeatherTracker,2013-03-10 21:23:00,
2013-03-10 16:28:00,70.0,48.8,29.94,East,101,1.0,0.0,47,0.00,,,0.00,WeatherTracker,2013-03-10 21:28:00,
2013-03-10 16:33:00,70.3,49.1,29.94,SSE,147,4.0,0.0,47,0.00,,,0.00,WeatherTracker,2013-03-10 21:33:00,
2013-03-10 16:38:00,70.6,48.8,29.94,SSE,155,3.0,0.0,46,0.00,,,0.00,WeatherTracker,2013-03-10 21:38:00,
2013-03-10 16:43:00,70.6,48.8,29.93,SE,145,3.0,0.0,46,0.00,,,0.00,WeatherTracker,2013-03-10 21:43:00,
2013-03-10 16:48:00,70.7,48.9,29.93,ESE,115,0.0,0.0,46,0.00,,,0.00,WeatherTracker,2013-03-10 21:48:00,
2013-03-10 16:53:00,70.9,49.1,29.93,SW,226,1.0,0.0,46,0.00,,,0.00,WeatherTracker,2013-03-10 21:53:00,
2013-03-10 16:58:00,71.0,48.6,29.92,WSW,241,2.0,0.0,45,0.00,,,0.00,WeatherTracker,2013-03-10 21:58:00,
2013-03-10 17:03:00,71.0,48.0,29.92,South,171,1.0,0.0,44,0.00,,,0.00,WeatherTracker,2013-03-10 22:03:00,
2013-03-10 17:08:00,71.0,46.7,29.92,ESE,113,5.0,0.0,42,0.00,,,0.00,WeatherTracker,2013-03-10 22:08:00,
2013-03-10 17:13:00,71.0,47.4,29.92,SE,142,0.0,0.0,43,0.00,,,0.00,WeatherTracker,2013-03-10 22:13:00,
2013-03-10 17:18:00,70.7,46.5,29.92,SSE,148,0.0,0.0,42,0.00,,,0.00,WeatherTracker,2013-03-10 22:18:00,
2013-03-10 17:24:00,70.6,47.0,29.91,South,178,1.0,0.0,43,0.00,,,0.00,WeatherTracker,2013-03-10 22:24:00,
2013-03-10 17:29:00,70.7,47.1,29.91,South,169,0.0,0.0,43,0.00,,,0.00,WeatherTracker,2013-03-10 22:29:00,
2013-03-10 17:34:00,70.5,46.9,29.91,SSE,153,11.0,0.0,43,0.00,,,0.00,WeatherTracker,2013-03-10 22:34:00,
2013-03-10 17:39:00,70.1,46.6,29.90,SSE,160,15.0,0.0,43,0.00,,,0.00,WeatherTracker,2013-03-10 22:39:00,
2013-03-10 17:44:00,69.6,46.7,29.89,South,185,2.0,0.0,44,0.00,,,0.00,WeatherTracker,2013-03-10 22:44:00,
2013-03-10 17:49:00,69.3,47.0,29.89,SSE,167,3.0,0.0,45,0.00,,,0.00,WeatherTracker,2013-03-10 22:49:00,
2013-03-10 17:54:00,69.0,47.3,29.89,SE,134,4.0,0.0,46,0.00,,,0.00,WeatherTracker,2013-03-10 22:54:00,
2013-03-10 17:59:00,68.9,47.3,29.88,SSE,161,3.0,0.0,46,0.00,,,0.00,WeatherTracker,2013-03-10 22:59:00,
2013-03-10 18:04:00,68.7,47.6,29.89,SSE,160,3.0,0.0,47,0.00,,,0.00,WeatherTracker,2013-03-10 23:04:00,
2013-03-10 18:09:00,68.6,47.6,29.89,SE,142,5.0,0.0,47,0.00,,,0.00,WeatherTracker,2013-03-10 23:09:00,
2013-03-10 18:14:00,68.4,47.4,29.89,SSE,160,4.0,0.0,47,0.00,,,0.00,WeatherTracker,2013-03-10 23:14:00,
2013-03-10 18:19:00,68.3,47.3,29.89,SSE,163,0.0,0.0,47,0.00,,,0.00,WeatherTracker,2013-03-10 23:19:00,
2013-03-10 18:24:00,68.1,47.1,29.89,SE,144,0.0,0.0,47,0.00,,,0.00,WeatherTracker,2013-03-10 23:24:00,
2013-03-10 18:29:00,68.0,47.6,29.89,SE,130,2.0,0.0,48,0.00,,,0.00,WeatherTracker,2013-03-10 23:29:00,
2013-03-10 18:35:00,67.8,47.4,29.88,SSE,158,1.0,0.0,48,0.00,,,0.00,WeatherTracker,2013-03-10 23:35:00,
2013-03-10 20:16:00,65.2,48.6,29.90,SSE,150,1.0,0.0,55,0.00,,,0.00,WeatherTracker,2013-03-11 01:16:00,
2013-03-10 20:21:00,65.1,48.0,29.89,SSE,156,0.0,0.0,54,0.00,,,0.00,WeatherTracker,2013-03-11 01:21:00,
2013-03-10 20:26:00,65.0,48.4,29.90,ESE,121,3.0,0.0,55,0.00,,,0.00,WeatherTracker,2013-03-11 01:26:00,
2013-03-10 20:32:00,65.0,48.4,29.91,South,175,2.0,0.0,55,0.00,,,0.00,WeatherTracker,2013-03-11 01:32:00,
2013-03-10 20:37:00,65.0,48.4,29.91,South,180,7.0,0.0,55,0.00,,,0.00,WeatherTracker,2013-03-11 01:37:00,
2013-03-10 20:42:00,64.9,48.3,29.91,ESE,110,4.0,0.0,55,0.00,,,0.00,WeatherTracker,2013-03-11 01:42:00,
2013-03-10 20:47:00,64.8,48.7,29.91,SSE,159,5.0,0.0,56,0.00,,,0.00,WeatherTracker,2013-03-11 01:47:00,
2013-03-10 20:52:00,64.7,48.6,29.91,SE,145,12.0,0.0,56,0.00,,,0.00,WeatherTracker,2013-03-11 01:52:00,
2013-03-10 20:57:00,64.7,48.6,29.91,SE,137,3.0,0.0,56,0.00,,,0.00,WeatherTracker,2013-03-11 01:57:00,
2013-03-10 21:02:00,64.7,48.6,29.91,SW,217,0.0,0.0,56,0.00,,,0.00,WeatherTracker,2013-03-11 02:02:00,
2013-03-10 21:07:00,64.7,48.6,29.91,South,173,5.0,0.0,56,0.00,,,0.00,WeatherTracker,2013-03-11 02:07:00,
2013-03-10 21:12:00,64.7,48.6,29.92,SSE,159,6.0,0.0,56,0.00,,,0.00,WeatherTracker,2013-03-11 02:12:00,
2013-03-10 21:17:00,64.6,49.0,29.92,SSE,147,1.0,0.0,57,0.00,,,0.00,WeatherTracker,2013-03-11 02:17:00,
2013-03-10 21:22:00,64.6,49.0,29.93,SSE,152,4.0,0.0,57,0.00,,,0.00,WeatherTracker,2013-03-11 02:22:00,
2013-03-10 21:27:00,64.5,48.9,29.93,SE,146,2.0,0.0,57,0.00,,,0.00,WeatherTracker,2013-03-11 02:27:00,
2013-03-10 21:32:00,64.5,48.9,29.93,NNE,22,0.0,0.0,57,0.00,,,0.00,WeatherTracker,2013-03-11 02:32:00,
2013-03-10 21:37:00,64.4,49.3,29.93,SSE,167,1.0,0.0,58,0.00,,,0.00,WeatherTracker,2013-03-11 02:37:00,
2013-03-10 21:42:00,64.3,49.2,29.93,SSE,165,2.0,0.0,58,0.00,,,0.00,WeatherTracker,2013-03-11 02:42:00,
2013-03-10 21:48:00,64.2,49.1,29.93,SSE,154,0.0,0.0,58,0.00,,,0.00,WeatherTracker,2013-03-11 02:48:00,
2013-03-10 21:53:00,64.1,49.5,29.93,SSE,153,4.0,0.0,59,0.00,,,0.00,WeatherTracker,2013-03-11 02:53:00,
2013-03-10 21:58:00,64.1,49.5,29.93,SSE,151,0.0,0.0,59,0.00,,,0.00,WeatherTracker,2013-03-11 02:58:00,
2013-03-10 22:03:00,64.1,49.5,29.93,South,191,3.0,0.0,59,0.00,,,0.00,WeatherTracker,2013-03-11 03:03:00,
2013-03-10 22:08:00,64.0,49.4,29.92,SSE,163,0.0,0.0,59,0.00,,,0.00,WeatherTracker,2013-03-11 03:08:00,
2013-03-10 22:13:00,64.0,49.4,29.93,SSE,148,0.0,0.0,59,0.00,,,0.00,WeatherTracker,2013-03-11 03:13:00,
2013-03-10 22:18:00,63.9,49.7,29.93,South,183,4.0,0.0,60,0.00,,,0.00,WeatherTracker,2013-03-11 03:18:00,
2013-03-10 22:23:00,63.9,49.7,29.93,SE,140,3.0,0.0,60,0.00,,,0.00,WeatherTracker,2013-03-11 03:23:00,
2013-03-10 22:28:00,63.9,50.2,29.93,West,267,3.0,0.0,61,0.00,,,0.00,WeatherTracker,2013-03-11 03:28:00,
2013-03-10 22:33:00,63.8,50.1,29.93,SSE,164,7.0,0.0,61,0.00,,,0.00,WeatherTracker,2013-03-11 03:33:00,
2013-03-10 22:38:00,63.7,50.0,29.92,SE,138,0.0,0.0,61,0.00,,,0.00,WeatherTracker,2013-03-11 03:38:00,
2013-03-10 22:43:00,63.5,49.8,29.92,SSE,156,4.0,0.0,61,0.00,,,0.00,WeatherTracker,2013-03-11 03:43:00,
2013-03-10 22:48:00,63.4,49.7,29.92,SSE,161,6.0,0.0,61,0.00,,,0.00,WeatherTracker,2013-03-11 03:48:00,
2013-03-10 22:53:00,63.3,49.6,29.92,SSE,153,9.0,0.0,61,0.00,,,0.00,WeatherTracker,2013-03-11 03:53:00,
2013-03-10 22:58:00,63.3,49.6,29.92,SE,140,7.0,0.0,61,0.00,,,0.00,WeatherTracker,2013-03-11 03:58:00,
2013-03-10 23:00:00,63.3,49.6,29.92,SSE,168,3.0,0.0,61,0.00,,,0.00,WeatherTracker,2013-03-11 04:00:00,
2013-03-10 23:05:00,63.2,49.5,29.91,SSE,159,12.0,0.0,61,0.00,,,0.00,WeatherTracker,2013-03-11 04:05:00,
2013-03-10 23:10:00,63.2,49.5,29.92,NE,37,1.0,0.0,61,0.00,,,0.00,WeatherTracker,2013-03-11 04:10:00,
2013-03-10 23:15:00,63.1,49.4,29.91,South,169,6.0,0.0,61,0.00,,,0.00,WeatherTracker,2013-03-11 04:15:00,
2013-03-10 23:20:00,63.1,49.4,29.91,ESE,115,0.0,0.0,61,0.00,,,0.00,WeatherTracker,2013-03-11 04:20:00,
2013-03-10 23:25:00,63.0,49.3,29.90,SSE,167,1.0,0.0,61,0.00,,,0.00,WeatherTracker,2013-03-11 04:25:00,
2013-03-10 23:30:00,62.9,49.2,29.90,SE,142,0.0,0.0,61,0.00,,,0.00,WeatherTracker,2013-03-11 04:30:00,
2013-03-10 23:35:00,62.8,49.1,29.89,SE,141,4.0,0.0,61,0.00,,,0.00,WeatherTracker,2013-03-11 04:35:00,
2013-03-10 23:40:00,62.7,49.1,29.89,SE,138,7.0,0.0,61,0.00,,,0.00,WeatherTracker,2013-03-11 04:40:00,
2013-03-10 23:45:00,62.6,49.0,29.90,SSE,153,15.0,0.0,61,0.00,,,0.00,WeatherTracker,2013-03-11 04:45:00,
2013-03-10 23:50:00,62.6,49.0,29.89,SSE,150,7.0,0.0,61,0.00,,,0.00,WeatherTracker,2013-03-11 04:50:00,
2013-03-10 23:55:00,62.6,49.0,29.90,SSE,150,1.0,0.0,61,0.00,,,0.00,WeatherTracker,2013-03-11 04:55:00,